Location: Newark
(7.0858°N, 171.3717°E)
Time: 07:50:22
(UTC+00:00)

Courier 1B Rocket - Pass Details

Date: 02 December 2020
Orbit: 920 x 1202 km, 28.2° (Epoch: 17 January)

Event Time Altitude Azimuth Distance (km) Brightness Sun altitude
Rises 14:57:33 0° 261° (W) 3,892 - -50.1°
Reaches altitude 10° 15:00:26 10° 268° (W) 2,976 - -49.5°
Maximum altitude 15:07:17 40° 336° (NNW) 1,643 - -48.0°
Drops below altitude 10° 15:14:27 10° 43° (NE) 3,112 - -46.4°
Exits shadow 15:15:15 - 46° (NE) 3,356 7.9 -46.2°
Sets 15:17:34 0° 51° (NE) 4,087 8.5 -45.7°
